Moline, IL

6:32 AM CDT on July 26, 2017 (GMT -0500)
Quad-City International

Weather History for KMLI - August, 2014

Change the Weather History Date:

Wednesday, August 13, 2014

  Actual Average Record
Temperature  
Mean Temperature 68 °F 74 °F  
Max Temperature 85 °F 84 °F 97 °F (1918)
Min Temperature 51 °F 64 °F 47 °F (2004)
Degree Days  
Heating Degree Days 0 0  
Month to date heating degree days 0 0  
Since 1 June heating degree days 8 21  
Since 1 July heating degree days 4 2  
Cooling Degree Days 3 9  
Month to date cooling degree days 85 124  
Year to date cooling degree days 589 738  
Since 1 June cooling degree days 484 662  
Growing Degree Days 18 (Base 50)    
Moisture  
Dew Point 56 °F    
Average Humidity 65    
Maximum Humidity 89    
Minimum Humidity 40    
Precipitation  
Precipitation 0.00 in 0.16 in 2.86 in (1902)
Month to date precipitation 1.04 1.86  
Year to date precipitation 25.29 24.50  
Snow  
Snow 0.00 in 0.00 in - ()
Month to date snowfall 0.0 0.0  
Since 1 June snowfall 0.0 0.0  
Since 1 July snowfall 0.0 0.0  
Snow Depth 0.00 in    
Sea Level Pressure  
Sea Level Pressure 30.05 in    
Wind  
Wind Speed 6 mph (West)    
Max Wind Speed 16 mph    
Max Gust Speed 21 mph    
Visibility 10 miles    
Events      
T = Trace of Precipitation, MM = Missing Value Source: NWS Daily Summary

Daily Weather History Graph

Daily Weather History Graph

Search for Another Location

Airport or City:

Trip Planner

Search our weather history database for the weather conditions in past years. The results will help you decide how hot, cold, wet, or windy it might be!

Date:

Astronomy

Aug. 13, 2014 Rise Set
Actual Time 6:08 AM CDT 8:04 PM CDT
Civil Twilight 5:38 AM CDT 8:33 PM CDT
Nautical Twilight 5:02 AM CDT 9:10 PM CDT
Astronomical Twilight 4:22 AM CDT 9:49 PM CDT
Moon 9:46 PM CDT (8/13) 9:40 AM CDT (8/13)
Length of Visible Light 14h 55m
Length of Day
13h 55m
Waning Gibbous, 87% of the Moon is Illuminated
Aug 13
Waning Gibbous
Aug 17
Last Quarter
Aug 25
New
Sep 2
First Quarter
Sep 8
Full

Hourly Weather History & Observations

Time (CDT) Temp. Heat Index Dew Point Humidity Pressure Visibility Wind Dir Wind Speed Gust Speed Precip Events Conditions
12:52 AM 55.4 °F - 51.8 °F 88% 30.03 in 10.0 mi Calm Calm - N/A   Clear
1:52 AM 55.0 °F - 51.1 °F 86% 30.03 in 10.0 mi Calm Calm - N/A   Clear
2:52 AM 54.0 °F - 50.0 °F 86% 30.04 in 10.0 mi Calm Calm - N/A   Clear
3:52 AM 54.0 °F - 50.0 °F 86% 30.04 in 10.0 mi Calm Calm - N/A   Clear
4:52 AM 52.0 °F - 48.9 °F 89% 30.05 in 10.0 mi WSW 3.5 mph - N/A   Clear
5:52 AM 53.1 °F - 50.0 °F 89% 30.06 in 10.0 mi Calm Calm - N/A   Clear
7:52 AM 62.1 °F - 55.9 °F 80% 30.09 in 10.0 mi West 8.1 mph - N/A   Clear
8:52 AM 68.0 °F - 55.9 °F 65% 30.09 in 10.0 mi West 6.9 mph - N/A   Clear
9:52 AM 73.4 °F - 55.4 °F 53% 30.10 in 10.0 mi West 5.8 mph - N/A   Clear
10:52 AM 77.0 °F - 55.0 °F 47% 30.09 in 10.0 mi WNW 10.4 mph - N/A   Clear
11:52 AM 80.1 °F 80.1 °F 55.0 °F 42% 30.08 in 10.0 mi WNW 9.2 mph - N/A   Clear
12:52 PM 81.0 °F 81.0 °F 57.0 °F 44% 30.07 in 10.0 mi West 12.7 mph - N/A   Clear
1:52 PM 82.9 °F 82.1 °F 55.9 °F 39% 30.06 in 10.0 mi West 10.4 mph 18.4 mph N/A   Clear
2:52 PM 84.2 °F 83.5 °F 57.2 °F 40% 30.06 in 10.0 mi WNW 8.1 mph - N/A   Clear
3:52 PM 84.0 °F 83.3 °F 57.0 °F 40% 30.04 in 10.0 mi WNW 12.7 mph - N/A   Partly Cloudy
4:52 PM 82.9 °F 82.6 °F 57.9 °F 42% 30.03 in 10.0 mi WNW 9.2 mph - N/A   Partly Cloudy
5:52 PM 82.0 °F 82.0 °F 57.9 °F 44% 30.02 in 10.0 mi WNW 10.4 mph - N/A   Clear
6:52 PM 80.1 °F 80.7 °F 59.0 °F 48% 30.02 in 10.0 mi West 10.4 mph - N/A   Clear
7:52 PM 73.0 °F - 60.1 °F 64% 30.01 in 10.0 mi West 8.1 mph - N/A   Clear
8:52 PM 71.1 °F - 61.0 °F 70% 30.03 in 10.0 mi WSW 5.8 mph - N/A   Clear
9:52 PM 70.0 °F - 61.0 °F 73% 30.03 in 10.0 mi WSW 5.8 mph - N/A   Mostly Cloudy
11:52 PM 68.0 °F - 61.0 °F 78% 30.04 in 10.0 mi WSW 5.8 mph - N/A   Mostly Cloudy